Tracking 31027 objects as of 19-Jul-2025
HD Live streaming from Space Station
objects crossing your sky now

IRIDIUM 33 DEB

Track IRIDIUM 33 DEB now!
10-day predictions


NORAD ID: 34690
Int'l Code: 1997-051KM
Perigee: 711.5 km
Apogee: 726.6 km
Inclination: 86.4 °
Period: 99.0 minutes
Semi major axis: 7090 km
RCS: 0.0122 m2 (small)
Launch date: September 14, 1997
Source: United States (US)
Launch site: TYURATAM MISSILE AND SPACE COMPLEX (TTMTR)

Note: This is SATELLITE DEBRIS
Your satellite tracking list
FLOCK 4Q 34
Track 1 satellite(s)




NASA's NSSDC Master Catalog

Two Line Element Set (TLE):
1 34690U 97051KM  25199.23303270  .00001314  00000-0  30521-3 0  9993
2 34690  86.3766 101.0781 0010693 134.3978 354.8535 14.54211844859720
Source of the keplerian elements: AFSPC